Year,Month,Day,Hour,Minute,Value (Times are PST for temperature in C)
2010,08,13,00,00,15.70
2010,08,13,00,01,15.70
2010,08,13,00,02,15.70
2010,08,13,00,03,15.70
2010,08,13,00,04,15.70
2010,08,13,00,05,15.70
2010,08,13,00,06,15.60
2010,08,13,00,07,15.60
2010,08,13,00,08,15.60
2010,08,13,00,09,15.60
2010,08,13,00,10,15.60
2010,08,13,00,11,15.60
2010,08,13,00,12,15.50
2010,08,13,00,13,15.50
2010,08,13,00,14,15.50
2010,08,13,00,15,15.50
2010,08,13,00,16,15.40
2010,08,13,00,17,15.40
2010,08,13,00,18,15.40
2010,08,13,00,19,15.40
2010,08,13,00,20,15.40
2010,08,13,00,21,15.40
2010,08,13,00,22,15.40
2010,08,13,00,23,15.40
2010,08,13,00,24,15.40
2010,08,13,00,25,15.40
2010,08,13,00,26,15.40
2010,08,13,00,27,15.40
2010,08,13,00,28,15.50
2010,08,13,00,29,15.50
2010,08,13,00,30,15.50
2010,08,13,00,31,15.50
2010,08,13,00,32,15.50
2010,08,13,00,33,15.50
2010,08,13,00,34,15.50
2010,08,13,00,35,15.50
2010,08,13,00,36,15.50
2010,08,13,00,37,15.50
2010,08,13,00,38,15.50
2010,08,13,00,39,15.50
2010,08,13,00,40,15.50
2010,08,13,00,41,15.50
2010,08,13,00,42,15.50
2010,08,13,00,43,15.50
2010,08,13,00,44,15.50
2010,08,13,00,45,15.50
2010,08,13,00,46,15.40
2010,08,13,00,47,15.40
2010,08,13,00,48,15.40
2010,08,13,00,49,15.40
2010,08,13,00,50,15.40
2010,08,13,00,51,15.40
2010,08,13,00,52,15.40
2010,08,13,00,53,15.40
2010,08,13,00,54,15.40
2010,08,13,00,55,15.40
2010,08,13,00,56,15.40
2010,08,13,00,57,15.40
2010,08,13,00,58,15.30
2010,08,13,00,59,15.30
2010,08,13,01,00,15.30
2010,08,13,01,01,15.30
2010,08,13,01,02,15.30
2010,08,13,01,03,15.30
2010,08,13,01,04,15.20
2010,08,13,01,05,15.20
2010,08,13,01,06,15.20
2010,08,13,01,07,15.20
2010,08,13,01,08,15.20
2010,08,13,01,09,15.10
2010,08,13,01,10,15.10
2010,08,13,01,11,15.10
2010,08,13,01,12,15.00
2010,08,13,01,13,15.00
2010,08,13,01,14,15.00
2010,08,13,01,15,15.00
2010,08,13,01,16,15.00
2010,08,13,01,17,15.00
2010,08,13,01,18,15.00
2010,08,13,01,19,15.00
2010,08,13,01,20,15.00
2010,08,13,01,21,15.00
2010,08,13,01,22,15.00
2010,08,13,01,23,15.00
2010,08,13,01,24,15.00
2010,08,13,01,25,15.00
2010,08,13,01,26,15.00
2010,08,13,01,27,15.00
2010,08,13,01,28,15.00
2010,08,13,01,29,14.90
2010,08,13,01,30,14.90
2010,08,13,01,31,14.80
2010,08,13,01,32,14.80
2010,08,13,01,33,14.80
2010,08,13,01,34,14.80
2010,08,13,01,35,14.80
2010,08,13,01,36,14.80
2010,08,13,01,37,14.80
2010,08,13,01,38,14.80
2010,08,13,01,39,14.80
2010,08,13,01,40,14.80
2010,08,13,01,41,14.80
2010,08,13,01,42,14.80
2010,08,13,01,43,14.70
2010,08,13,01,44,14.70
2010,08,13,01,45,14.70
2010,08,13,01,46,14.60
2010,08,13,01,47,14.60
2010,08,13,01,48,14.60
2010,08,13,01,49,14.60
2010,08,13,01,50,14.60
2010,08,13,01,51,14.60
2010,08,13,01,52,14.60
2010,08,13,01,53,14.50
2010,08,13,01,54,14.50
2010,08,13,01,55,14.50
2010,08,13,01,56,14.50
2010,08,13,01,57,14.50
2010,08,13,01,58,14.50
2010,08,13,01,59,14.50
2010,08,13,02,00,14.50
2010,08,13,02,01,14.50
2010,08,13,02,02,14.50
2010,08,13,02,03,14.50
2010,08,13,02,04,14.50
2010,08,13,02,05,14.50
2010,08,13,02,06,14.60
2010,08,13,02,07,14.60
2010,08,13,02,08,14.60
2010,08,13,02,09,14.60
2010,08,13,02,10,14.60
2010,08,13,02,11,14.60
2010,08,13,02,12,14.60
2010,08,13,02,13,14.60
2010,08,13,02,14,14.60
2010,08,13,02,15,14.60
2010,08,13,02,16,14.50
2010,08,13,02,17,14.50
2010,08,13,02,18,14.50
2010,08,13,02,19,14.50
2010,08,13,02,20,14.40
2010,08,13,02,21,14.40
2010,08,13,02,22,14.40
2010,08,13,02,23,14.40
2010,08,13,02,24,14.40
2010,08,13,02,25,14.40
2010,08,13,02,26,14.40
2010,08,13,02,27,14.40
2010,08,13,02,28,14.40
2010,08,13,02,29,14.40
2010,08,13,02,30,14.30
2010,08,13,02,31,14.30
2010,08,13,02,32,14.30
2010,08,13,02,33,14.30
2010,08,13,02,34,14.20
2010,08,13,02,35,14.20
2010,08,13,02,36,14.20
2010,08,13,02,37,14.10
2010,08,13,02,38,14.10
2010,08,13,02,39,14.10
2010,08,13,02,40,14.10
2010,08,13,02,41,14.00
2010,08,13,02,42,14.00
2010,08,13,02,43,14.00
2010,08,13,02,44,13.90
2010,08,13,02,45,13.90
2010,08,13,02,46,13.80
2010,08,13,02,47,13.80
2010,08,13,02,48,13.80
2010,08,13,02,49,13.80
2010,08,13,02,50,13.70
2010,08,13,02,51,13.70
2010,08,13,02,52,13.70
2010,08,13,02,53,13.70
2010,08,13,02,54,13.60
2010,08,13,02,55,13.60
2010,08,13,02,56,13.60
2010,08,13,02,57,13.60
2010,08,13,02,58,13.60
2010,08,13,02,59,13.50
2010,08,13,03,00,13.50
2010,08,13,03,01,13.50
2010,08,13,03,02,13.40
2010,08,13,03,03,13.40
2010,08,13,03,06,13.40
2010,08,13,03,07,13.40
2010,08,13,03,08,13.30
2010,08,13,03,09,13.30
2010,08,13,03,10,13.30
2010,08,13,03,11,13.40
2010,08,13,03,12,13.30
2010,08,13,03,13,13.30
2010,08,13,03,14,13.30
2010,08,13,03,15,13.30
2010,08,13,03,16,13.30
2010,08,13,03,17,13.30
2010,08,13,03,18,13.30
2010,08,13,03,19,13.20
2010,08,13,03,20,13.20
2010,08,13,03,21,13.20
2010,08,13,03,22,13.20
2010,08,13,03,23,13.20
2010,08,13,03,24,13.20
2010,08,13,03,25,13.20
2010,08,13,03,26,13.20
2010,08,13,03,27,13.20
2010,08,13,03,28,13.20
2010,08,13,03,29,13.10
2010,08,13,03,30,13.10
2010,08,13,03,31,13.10
2010,08,13,03,32,13.10
2010,08,13,03,33,13.10
2010,08,13,03,34,13.00
2010,08,13,03,35,13.00
2010,08,13,03,36,13.00
2010,08,13,03,37,13.00
2010,08,13,03,38,13.00
2010,08,13,03,39,13.00
2010,08,13,03,40,13.10
2010,08,13,03,41,13.10
2010,08,13,03,42,13.10
2010,08,13,03,43,13.10
2010,08,13,03,44,13.20
2010,08,13,03,45,13.20
2010,08,13,03,46,13.30
2010,08,13,03,47,13.30
2010,08,13,03,48,13.30
2010,08,13,03,49,13.40
2010,08,13,03,50,13.40
2010,08,13,03,51,13.40
2010,08,13,03,52,13.40
2010,08,13,03,53,13.40
2010,08,13,03,54,13.40
2010,08,13,03,55,13.40
2010,08,13,03,56,13.40
2010,08,13,03,57,13.30
2010,08,13,03,58,13.30
2010,08,13,03,59,13.30
2010,08,13,04,00,13.30
2010,08,13,04,01,13.30
2010,08,13,04,02,13.20
2010,08,13,04,03,13.20
2010,08,13,04,04,13.20
2010,08,13,04,05,13.10
2010,08,13,04,06,13.10
2010,08,13,04,07,13.00
2010,08,13,04,08,13.00
2010,08,13,04,09,13.00
2010,08,13,04,10,12.90
2010,08,13,04,11,12.90
2010,08,13,04,12,12.90
2010,08,13,04,13,12.90
2010,08,13,04,14,12.90
2010,08,13,04,15,12.90
2010,08,13,04,16,12.80
2010,08,13,04,17,12.80
2010,08,13,04,18,12.80
2010,08,13,04,19,12.80
2010,08,13,04,20,12.80
2010,08,13,04,21,12.80
2010,08,13,04,22,12.80
2010,08,13,04,23,12.80
2010,08,13,04,24,12.80
2010,08,13,04,25,12.80
2010,08,13,04,26,12.80
2010,08,13,04,27,12.80
2010,08,13,04,28,12.80
2010,08,13,04,29,12.70
2010,08,13,04,30,12.70
2010,08,13,04,31,12.70
2010,08,13,04,32,12.70
2010,08,13,04,33,12.80
2010,08,13,04,34,12.80
2010,08,13,04,35,12.80
2010,08,13,04,36,12.80
2010,08,13,04,37,12.80
2010,08,13,04,38,12.80
2010,08,13,04,39,12.80
2010,08,13,04,40,12.80
2010,08,13,04,41,12.80
2010,08,13,04,42,12.80
2010,08,13,04,43,12.80
2010,08,13,04,44,12.80
2010,08,13,04,45,12.80
2010,08,13,04,46,12.80
2010,08,13,04,47,12.80
2010,08,13,04,48,12.80
2010,08,13,04,49,12.70
2010,08,13,04,50,12.70
2010,08,13,04,51,12.70
2010,08,13,04,52,12.70
2010,08,13,04,53,12.70
2010,08,13,04,54,12.70
2010,08,13,04,55,12.70
2010,08,13,04,56,12.70
2010,08,13,04,57,12.60
2010,08,13,04,58,12.60
2010,08,13,04,59,12.60
2010,08,13,05,00,12.50
2010,08,13,05,01,12.50
2010,08,13,05,02,12.40
2010,08,13,05,03,12.40
2010,08,13,05,04,12.40
2010,08,13,05,05,12.30
2010,08,13,05,06,12.30
2010,08,13,05,07,12.30
2010,08,13,05,08,12.30
2010,08,13,05,09,12.30
2010,08,13,05,10,12.30
2010,08,13,05,11,12.30
2010,08,13,05,12,12.30
2010,08,13,05,13,12.30
2010,08,13,05,14,12.30
2010,08,13,05,15,12.30
2010,08,13,05,16,12.30
2010,08,13,05,17,12.30
2010,08,13,05,18,12.30
2010,08,13,05,19,12.30
2010,08,13,05,20,12.30
2010,08,13,05,21,12.30
2010,08,13,05,22,12.30
2010,08,13,05,23,12.30
2010,08,13,05,24,12.30
2010,08,13,05,25,12.30
2010,08,13,05,26,12.30
2010,08,13,05,27,12.40
2010,08,13,05,28,12.40
2010,08,13,05,29,12.40
2010,08,13,05,30,12.40
2010,08,13,05,31,12.40
2010,08,13,05,32,12.40
2010,08,13,05,33,12.40
2010,08,13,05,34,12.40
2010,08,13,05,35,12.40
2010,08,13,05,36,12.40
2010,08,13,05,37,12.40
2010,08,13,05,38,12.40
2010,08,13,05,39,12.40
2010,08,13,05,40,12.40
2010,08,13,05,41,12.40
2010,08,13,05,42,12.40
2010,08,13,05,43,12.40
2010,08,13,05,44,12.40
2010,08,13,05,45,12.40
2010,08,13,05,46,12.40
2010,08,13,05,47,12.40
2010,08,13,05,48,12.40
2010,08,13,05,49,12.30
2010,08,13,05,50,12.30
2010,08,13,05,51,12.30
2010,08,13,05,52,12.30
2010,08,13,05,53,12.30
2010,08,13,05,54,12.30
2010,08,13,05,55,12.30
2010,08,13,05,56,12.30
2010,08,13,05,57,12.30
2010,08,13,05,58,12.30
2010,08,13,05,59,12.30
2010,08,13,06,00,12.20
2010,08,13,06,01,12.20
2010,08,13,06,02,12.20
2010,08,13,06,03,12.20
2010,08,13,06,04,12.20
2010,08,13,06,05,12.20
2010,08,13,06,06,12.20
2010,08,13,06,07,12.20
2010,08,13,06,08,12.30
2010,08,13,06,09,12.30
2010,08,13,06,10,12.30
2010,08,13,06,11,12.30
2010,08,13,06,12,12.30
2010,08,13,06,13,12.30
2010,08,13,06,14,12.30
2010,08,13,06,15,12.30
2010,08,13,06,16,12.30
2010,08,13,06,17,12.30
2010,08,13,06,18,12.30
2010,08,13,06,19,12.30
2010,08,13,06,20,12.30
2010,08,13,06,21,12.30
2010,08,13,06,22,12.30
2010,08,13,06,23,12.30
2010,08,13,06,24,12.30
2010,08,13,06,25,12.30
2010,08,13,06,26,12.30
2010,08,13,06,27,12.30
2010,08,13,06,28,12.30
2010,08,13,06,29,12.30
2010,08,13,06,30,12.30
2010,08,13,06,31,12.30
2010,08,13,06,32,12.20
2010,08,13,06,33,12.20
2010,08,13,06,34,12.20
2010,08,13,06,35,12.20
2010,08,13,06,36,12.20
2010,08,13,06,37,12.20
2010,08,13,06,38,12.20
2010,08,13,06,39,12.20
2010,08,13,06,40,12.20
2010,08,13,06,41,12.20
2010,08,13,06,42,12.20
2010,08,13,06,43,12.20
2010,08,13,06,44,12.20
2010,08,13,06,45,12.20
2010,08,13,06,46,12.10
2010,08,13,06,47,12.10
2010,08,13,06,48,12.10
2010,08,13,06,49,12.10
2010,08,13,06,50,12.10
2010,08,13,06,51,12.10
2010,08,13,06,52,12.10
2010,08,13,06,53,12.20
2010,08,13,06,54,12.20
2010,08,13,06,55,12.20
2010,08,13,06,56,12.30
2010,08,13,06,57,12.30
2010,08,13,06,58,12.40
2010,08,13,06,59,12.40
2010,08,13,07,00,12.50
2010,08,13,07,01,12.50
2010,08,13,07,02,12.60
2010,08,13,07,03,12.60
2010,08,13,07,04,12.70
2010,08,13,07,05,12.70
2010,08,13,07,06,12.70
2010,08,13,07,07,12.80
2010,08,13,07,08,12.80
2010,08,13,07,09,12.80
2010,08,13,07,10,12.90
2010,08,13,07,11,12.90
2010,08,13,07,12,12.90
2010,08,13,07,13,13.00
2010,08,13,07,14,13.00
2010,08,13,07,15,13.10
2010,08,13,07,16,13.10
2010,08,13,07,17,13.20
2010,08,13,07,18,13.20
2010,08,13,07,19,13.20
2010,08,13,07,20,13.30
2010,08,13,07,21,13.30
2010,08,13,07,22,13.30
2010,08,13,07,23,13.40
2010,08,13,07,24,13.40
2010,08,13,07,25,13.40
2010,08,13,07,26,13.40
2010,08,13,07,27,13.50
2010,08,13,07,28,13.60
2010,08,13,07,29,13.60
2010,08,13,07,30,13.60
2010,08,13,07,31,13.60
2010,08,13,07,32,13.70
2010,08,13,07,33,13.70
2010,08,13,07,34,13.70
2010,08,13,07,35,13.80
2010,08,13,07,36,13.80
2010,08,13,07,37,13.80
2010,08,13,07,38,13.90
2010,08,13,07,39,13.90
2010,08,13,07,40,14.00
2010,08,13,07,41,14.00
2010,08,13,07,42,14.10
2010,08,13,07,43,14.10
2010,08,13,07,44,14.10
2010,08,13,07,45,14.20
2010,08,13,07,46,14.20
2010,08,13,07,47,14.20
2010,08,13,07,48,14.30
2010,08,13,07,49,14.30
2010,08,13,07,50,14.40
2010,08,13,07,51,14.40
2010,08,13,07,52,14.50
2010,08,13,07,53,14.60
2010,08,13,07,54,14.70
2010,08,13,07,55,14.70
2010,08,13,07,56,14.80
2010,08,13,07,57,14.80
2010,08,13,07,58,14.90
2010,08,13,07,59,15.00
2010,08,13,08,00,15.00
2010,08,13,08,01,15.00
2010,08,13,08,02,15.00
2010,08,13,08,03,15.00
2010,08,13,08,04,15.00
2010,08,13,08,05,15.20
2010,08,13,08,06,15.20
2010,08,13,08,07,15.30
2010,08,13,08,08,15.30
2010,08,13,08,09,15.30
2010,08,13,08,10,15.40
2010,08,13,08,11,15.50
2010,08,13,08,12,15.60
2010,08,13,08,13,15.60
2010,08,13,08,14,15.70
2010,08,13,08,15,15.80
2010,08,13,08,16,15.80
2010,08,13,08,17,15.90
2010,08,13,08,18,15.90
2010,08,13,08,19,16.00
2010,08,13,08,20,16.10
2010,08,13,08,21,16.10
2010,08,13,08,22,16.20
2010,08,13,08,23,16.30
2010,08,13,08,24,16.30
2010,08,13,08,25,16.40
2010,08,13,08,26,16.50
2010,08,13,08,27,16.50
2010,08,13,08,28,16.60
2010,08,13,08,29,16.70
2010,08,13,08,30,16.80
2010,08,13,08,31,16.90
2010,08,13,08,32,17.00
2010,08,13,08,33,17.10
2010,08,13,08,34,17.10
2010,08,13,08,35,17.20
2010,08,13,08,36,17.20
2010,08,13,08,37,17.30
2010,08,13,08,38,17.40
2010,08,13,08,39,17.40
2010,08,13,08,40,17.50
2010,08,13,08,41,17.60
2010,08,13,08,42,17.60
2010,08,13,08,43,17.70
2010,08,13,08,44,17.70
2010,08,13,08,45,17.80
2010,08,13,08,46,17.80
2010,08,13,08,47,17.80
2010,08,13,08,48,17.90
2010,08,13,08,49,17.90
2010,08,13,08,50,18.00
2010,08,13,08,51,18.00
2010,08,13,08,52,18.10
2010,08,13,08,53,18.20
2010,08,13,08,54,18.20
2010,08,13,08,55,18.30
2010,08,13,08,56,18.40
2010,08,13,08,57,18.40
2010,08,13,08,58,18.50
2010,08,13,08,59,18.60
2010,08,13,09,00,18.60
2010,08,13,09,01,18.70
2010,08,13,09,02,18.70
2010,08,13,09,03,18.80
2010,08,13,09,04,18.80
2010,08,13,09,05,18.90
2010,08,13,09,06,18.90
2010,08,13,09,07,19.00
2010,08,13,09,08,19.10
2010,08,13,09,09,19.20
2010,08,13,09,10,19.20
2010,08,13,09,11,19.30
2010,08,13,09,12,19.30
2010,08,13,09,13,19.30
2010,08,13,09,14,19.40
2010,08,13,09,15,19.50
2010,08,13,09,16,19.50
2010,08,13,09,17,19.60
2010,08,13,09,18,19.60
2010,08,13,09,19,19.70
2010,08,13,09,20,19.70
2010,08,13,09,21,19.80
2010,08,13,09,22,19.80
2010,08,13,09,23,19.90
2010,08,13,09,24,20.00
2010,08,13,09,25,20.10
2010,08,13,09,26,20.20
2010,08,13,09,27,20.20
2010,08,13,09,28,20.30
2010,08,13,09,29,20.30
2010,08,13,09,30,20.40
2010,08,13,09,31,20.40
2010,08,13,09,32,20.50
2010,08,13,09,33,20.50
2010,08,13,09,34,20.60
2010,08,13,09,35,20.70
2010,08,13,09,36,20.80
2010,08,13,09,37,20.80
2010,08,13,09,38,20.90
2010,08,13,09,39,20.90
2010,08,13,09,40,21.00
2010,08,13,09,41,21.00
2010,08,13,09,42,21.10
2010,08,13,09,43,21.10
2010,08,13,09,44,21.20
2010,08,13,09,45,21.20
2010,08,13,09,46,21.20
2010,08,13,09,47,21.20
2010,08,13,09,48,21.20
2010,08,13,09,49,21.20
2010,08,13,09,50,21.20
2010,08,13,09,51,21.20
2010,08,13,09,52,21.20
2010,08,13,09,53,21.20
2010,08,13,09,54,21.30
2010,08,13,09,55,21.30
2010,08,13,09,56,21.30
2010,08,13,09,57,21.40
2010,08,13,09,58,21.40
2010,08,13,09,59,21.50
2010,08,13,10,00,21.50
2010,08,13,10,01,21.50
2010,08,13,10,02,21.50
2010,08,13,10,03,21.50
2010,08,13,10,04,21.50
2010,08,13,10,05,21.50
2010,08,13,10,06,21.50
2010,08,13,10,07,21.60
2010,08,13,10,08,21.60
2010,08,13,10,09,21.70
2010,08,13,10,10,21.70
2010,08,13,10,11,21.80
2010,08,13,10,12,21.80
2010,08,13,10,13,21.80
2010,08,13,10,14,21.90
2010,08,13,10,15,21.90
2010,08,13,10,16,22.00
2010,08,13,10,17,22.10
2010,08,13,10,18,22.20
2010,08,13,10,19,22.20
2010,08,13,10,20,22.30
2010,08,13,10,21,22.40
2010,08,13,10,22,22.50
2010,08,13,10,23,22.50
2010,08,13,10,24,22.60
2010,08,13,10,25,22.60
2010,08,13,10,26,22.60
2010,08,13,10,27,22.70
2010,08,13,10,28,22.70
2010,08,13,10,29,22.70
2010,08,13,10,30,22.80
2010,08,13,10,31,22.90
2010,08,13,10,32,22.90
2010,08,13,10,33,23.00
2010,08,13,10,34,23.10
2010,08,13,10,35,23.20
2010,08,13,10,36,23.20
2010,08,13,10,37,23.30
2010,08,13,10,38,23.30
2010,08,13,10,39,23.40
2010,08,13,10,40,23.40
2010,08,13,10,41,23.40
2010,08,13,10,42,23.50
2010,08,13,10,43,23.50
2010,08,13,10,44,23.50
2010,08,13,10,45,23.60
2010,08,13,10,46,23.60
2010,08,13,10,47,23.70
2010,08,13,10,48,23.70
2010,08,13,10,49,23.80
2010,08,13,10,50,23.90
2010,08,13,10,51,23.90
2010,08,13,10,52,24.10
2010,08,13,10,53,24.20
2010,08,13,10,54,24.40
2010,08,13,10,55,24.50
2010,08,13,10,56,24.60
2010,08,13,10,57,24.70
2010,08,13,10,58,24.80
2010,08,13,10,59,24.90
2010,08,13,11,00,25.00
2010,08,13,11,01,25.10
2010,08,13,11,02,25.10
2010,08,13,11,03,25.30
2010,08,13,11,04,25.30
2010,08,13,11,05,25.30
2010,08,13,11,06,25.30
2010,08,13,11,07,25.30
2010,08,13,11,08,25.40
2010,08,13,11,09,25.40
2010,08,13,11,10,25.50
2010,08,13,11,11,25.60
2010,08,13,11,12,25.60
2010,08,13,11,13,25.60
2010,08,13,11,14,25.70
2010,08,13,11,15,25.70
2010,08,13,11,16,25.60
2010,08,13,11,17,25.60
2010,08,13,11,18,25.70
2010,08,13,11,19,25.70
2010,08,13,11,20,25.70
2010,08,13,11,21,25.80
2010,08,13,11,22,25.90
2010,08,13,11,23,25.90
2010,08,13,11,24,26.00
2010,08,13,11,25,26.10
2010,08,13,11,26,26.30
2010,08,13,11,27,26.40
2010,08,13,11,28,26.60
2010,08,13,11,29,26.70
2010,08,13,11,30,26.80
2010,08,13,11,31,26.80
2010,08,13,11,32,26.70
2010,08,13,11,33,26.70
2010,08,13,11,34,26.70
2010,08,13,11,35,26.80
2010,08,13,11,36,26.80
2010,08,13,11,37,26.80
2010,08,13,11,38,26.80
2010,08,13,11,39,26.80
2010,08,13,11,40,26.80
2010,08,13,11,41,26.70
2010,08,13,11,42,26.70
2010,08,13,11,43,26.70
2010,08,13,11,44,26.60
2010,08,13,11,45,26.60
2010,08,13,11,46,26.60
2010,08,13,11,47,26.70
2010,08,13,11,48,26.70
2010,08,13,11,49,26.70
2010,08,13,11,50,26.70
2010,08,13,11,51,26.60
2010,08,13,11,52,26.60
2010,08,13,11,53,26.60
2010,08,13,11,54,26.60
2010,08,13,11,55,26.70
2010,08,13,11,56,26.70
2010,08,13,11,57,26.70
2010,08,13,11,58,26.70
2010,08,13,11,59,26.70
2010,08,13,12,00,26.60
2010,08,13,12,01,26.60
2010,08,13,12,02,26.70
2010,08,13,12,03,26.70
2010,08,13,12,04,26.80
2010,08,13,12,05,27.00
2010,08,13,12,06,27.10
2010,08,13,12,07,27.10
2010,08,13,12,08,27.20
2010,08,13,12,09,27.30
2010,08,13,12,10,27.30
2010,08,13,12,11,27.40
2010,08,13,12,12,27.50
2010,08,13,12,13,27.60
2010,08,13,12,14,27.60
2010,08,13,12,15,27.50
2010,08,13,12,16,27.50
2010,08,13,12,17,27.40
2010,08,13,12,18,27.40
2010,08,13,12,19,27.40
2010,08,13,12,20,27.40
2010,08,13,12,21,27.50
2010,08,13,12,22,27.50
2010,08,13,12,23,27.50
2010,08,13,12,24,27.60
2010,08,13,12,25,27.60
2010,08,13,12,26,27.60
2010,08,13,12,27,27.60
2010,08,13,12,28,27.60
2010,08,13,12,29,27.60
2010,08,13,12,30,27.60
2010,08,13,12,31,27.60
2010,08,13,12,32,27.60
2010,08,13,12,33,27.60
2010,08,13,12,34,27.70
2010,08,13,12,35,27.80
2010,08,13,12,36,27.90
2010,08,13,12,37,27.90
2010,08,13,12,38,28.00
2010,08,13,12,39,28.00
2010,08,13,12,40,28.00
2010,08,13,12,41,27.90
2010,08,13,12,42,28.00
2010,08,13,12,43,28.10
2010,08,13,12,44,28.10
2010,08,13,12,45,28.10
2010,08,13,12,46,28.10
2010,08,13,12,47,28.10
2010,08,13,12,48,28.00
2010,08,13,12,49,28.10
2010,08,13,12,50,28.10
2010,08,13,12,51,28.20
2010,08,13,12,52,28.30
2010,08,13,12,53,28.30
2010,08,13,12,54,28.30
2010,08,13,12,55,28.30
2010,08,13,12,56,28.30
2010,08,13,12,57,28.30
2010,08,13,12,58,28.30
2010,08,13,12,59,28.30
2010,08,13,13,00,28.30
2010,08,13,13,01,28.30
2010,08,13,13,02,28.30
2010,08,13,13,03,28.40
2010,08,13,13,04,28.40
2010,08,13,13,05,28.50
2010,08,13,13,06,28.50
2010,08,13,13,07,28.50
2010,08,13,13,08,28.60
2010,08,13,13,09,28.60
2010,08,13,13,10,28.60
2010,08,13,13,11,28.70
2010,08,13,13,12,28.70
2010,08,13,13,13,28.70
2010,08,13,13,14,28.70
2010,08,13,13,15,28.70
2010,08,13,13,16,28.70
2010,08,13,13,17,28.70
2010,08,13,13,18,28.70
2010,08,13,13,19,28.70
2010,08,13,13,20,28.60
2010,08,13,13,21,28.60
2010,08,13,13,22,28.60
2010,08,13,13,23,28.50
2010,08,13,13,24,28.50
2010,08,13,13,25,28.60
2010,08,13,13,26,28.60
2010,08,13,13,27,28.70
2010,08,13,13,28,28.70
2010,08,13,13,29,28.70
2010,08,13,13,30,28.80
2010,08,13,13,31,28.80
2010,08,13,13,32,28.70
2010,08,13,13,33,28.60
2010,08,13,13,34,28.60
2010,08,13,13,35,28.60
2010,08,13,13,36,28.70
2010,08,13,13,37,28.70
2010,08,13,13,38,28.70
2010,08,13,13,39,28.70
2010,08,13,13,40,28.70
2010,08,13,13,41,28.70
2010,08,13,13,42,28.70
2010,08,13,13,43,28.70
2010,08,13,13,44,28.80
2010,08,13,13,45,28.80
2010,08,13,13,46,28.80
2010,08,13,13,47,28.80
2010,08,13,13,48,28.80
2010,08,13,13,49,28.70
2010,08,13,13,50,28.70
2010,08,13,13,51,28.70
2010,08,13,13,52,28.70
2010,08,13,13,53,28.80
2010,08,13,13,54,28.90
2010,08,13,13,55,28.90
2010,08,13,13,56,28.80
2010,08,13,13,57,28.80
2010,08,13,13,58,28.80
2010,08,13,13,59,28.80
2010,08,13,14,00,28.80
2010,08,13,14,01,28.80
2010,08,13,14,02,28.90
2010,08,13,14,03,28.90
2010,08,13,14,04,28.90
2010,08,13,14,05,29.00
2010,08,13,14,06,29.10
2010,08,13,14,07,29.10
2010,08,13,14,08,29.20
2010,08,13,14,09,29.30
2010,08,13,14,10,29.30
2010,08,13,14,11,29.20
2010,08,13,14,12,29.00
2010,08,13,14,13,29.00
2010,08,13,14,14,29.00
2010,08,13,14,15,29.00
2010,08,13,14,16,29.00
2010,08,13,14,17,29.00
2010,08,13,14,18,29.00
2010,08,13,14,19,29.00
2010,08,13,14,20,29.00
2010,08,13,14,21,29.00
2010,08,13,14,22,29.00
2010,08,13,14,23,29.00
2010,08,13,14,24,29.10
2010,08,13,14,25,29.10
2010,08,13,14,26,29.10
2010,08,13,14,27,29.10
2010,08,13,14,28,29.10
2010,08,13,14,29,29.10
2010,08,13,14,30,29.10
2010,08,13,14,31,29.10
2010,08,13,14,32,29.10
2010,08,13,14,33,29.10
2010,08,13,14,34,29.20
2010,08,13,14,35,29.30
2010,08,13,14,36,29.40
2010,08,13,14,37,29.60
2010,08,13,14,38,29.60
2010,08,13,14,39,29.70
2010,08,13,14,40,29.80
2010,08,13,14,41,29.80
2010,08,13,14,42,29.80
2010,08,13,14,43,29.90
2010,08,13,14,44,29.90
2010,08,13,14,45,29.90
2010,08,13,14,46,29.80
2010,08,13,14,47,29.80
2010,08,13,14,48,29.80
2010,08,13,14,49,29.80
2010,08,13,14,50,29.90
2010,08,13,14,51,30.00
2010,08,13,14,52,30.10
2010,08,13,14,53,30.10
2010,08,13,14,54,30.20
2010,08,13,14,55,30.20
2010,08,13,14,56,30.20
2010,08,13,14,57,30.20
2010,08,13,14,58,30.10
2010,08,13,14,59,30.10
2010,08,13,15,00,30.10
2010,08,13,15,01,30.10
2010,08,13,15,02,30.10
2010,08,13,15,03,30.10
2010,08,13,15,04,30.10
2010,08,13,15,05,30.00
2010,08,13,15,06,30.00
2010,08,13,15,07,29.90
2010,08,13,15,08,29.90
2010,08,13,15,09,29.90
2010,08,13,15,10,30.00
2010,08,13,15,11,30.10
2010,08,13,15,12,30.10
2010,08,13,15,13,30.20
2010,08,13,15,14,30.30
2010,08,13,15,15,30.30
2010,08,13,15,16,30.40
2010,08,13,15,17,30.50
2010,08,13,15,18,30.50
2010,08,13,15,19,30.50
2010,08,13,15,20,30.50
2010,08,13,15,21,30.50
2010,08,13,15,22,30.50
2010,08,13,15,23,30.40
2010,08,13,15,24,30.40
2010,08,13,15,25,30.30
2010,08,13,15,26,30.30
2010,08,13,15,27,30.30
2010,08,13,15,28,30.30
2010,08,13,15,29,30.20
2010,08,13,15,30,30.30
2010,08,13,15,31,30.30
2010,08,13,15,32,30.40
2010,08,13,15,33,30.40
2010,08,13,15,34,30.50
2010,08,13,15,35,30.50
2010,08,13,15,36,30.60
2010,08,13,15,37,30.60
2010,08,13,15,38,30.50
2010,08,13,15,39,30.40
2010,08,13,15,40,30.40
2010,08,13,15,41,30.40
2010,08,13,15,42,30.40
2010,08,13,15,43,30.50
2010,08,13,15,44,30.60
2010,08,13,15,45,30.60
2010,08,13,15,46,30.60
2010,08,13,15,47,30.60
2010,08,13,15,48,30.60
2010,08,13,15,49,30.70
2010,08,13,15,50,30.70
2010,08,13,15,51,30.70
2010,08,13,15,52,30.80
2010,08,13,15,53,30.80
2010,08,13,15,54,30.80
2010,08,13,15,55,30.90
2010,08,13,15,56,30.90
2010,08,13,15,57,30.90
2010,08,13,15,58,30.80
2010,08,13,15,59,30.80
2010,08,13,16,00,30.70
2010,08,13,16,01,30.60
2010,08,13,16,02,30.60
2010,08,13,16,03,30.60
2010,08,13,16,04,30.70
2010,08,13,16,05,30.80
2010,08,13,16,06,30.80
2010,08,13,16,07,30.80
2010,08,13,16,08,30.80
2010,08,13,16,09,30.80
2010,08,13,16,10,30.90
2010,08,13,16,11,30.90
2010,08,13,16,12,30.90
2010,08,13,16,13,30.90
2010,08,13,16,14,30.80
2010,08,13,16,15,30.80
2010,08,13,16,16,30.80
2010,08,13,16,17,30.80
2010,08,13,16,18,30.80
2010,08,13,16,19,30.90
2010,08,13,16,20,30.90
2010,08,13,16,21,30.90
2010,08,13,16,22,30.90
2010,08,13,16,23,30.90
2010,08,13,16,24,30.90
2010,08,13,16,25,31.00
2010,08,13,16,26,31.00
2010,08,13,16,27,31.10
2010,08,13,16,28,31.20
2010,08,13,16,29,31.20
2010,08,13,16,30,31.20
2010,08,13,16,31,31.30
2010,08,13,16,32,31.30
2010,08,13,16,33,31.30
2010,08,13,16,34,31.30
2010,08,13,16,35,31.30
2010,08,13,16,36,31.30
2010,08,13,16,37,31.20
2010,08,13,16,38,31.10
2010,08,13,16,39,31.10
2010,08,13,16,40,31.10
2010,08,13,16,41,31.10
2010,08,13,16,42,31.10
2010,08,13,16,43,31.20
2010,08,13,16,44,31.20
2010,08,13,16,45,31.20
2010,08,13,16,46,31.20
2010,08,13,16,47,31.20
2010,08,13,16,48,31.10
2010,08,13,16,49,31.10
2010,08,13,16,50,31.10
2010,08,13,16,51,31.10
2010,08,13,16,52,31.10
2010,08,13,16,53,31.10
2010,08,13,16,54,31.10
2010,08,13,16,55,31.10
2010,08,13,16,56,31.10
2010,08,13,16,57,31.10
2010,08,13,16,58,31.10
2010,08,13,16,59,31.10
2010,08,13,17,00,31.10
2010,08,13,17,01,31.10
2010,08,13,17,02,31.20
2010,08,13,17,03,31.30
2010,08,13,17,04,31.30
2010,08,13,17,05,31.40
2010,08,13,17,06,31.40
2010,08,13,17,07,31.50
2010,08,13,17,08,31.60
2010,08,13,17,09,31.60
2010,08,13,17,10,31.60
2010,08,13,17,11,31.60
2010,08,13,17,12,31.70
2010,08,13,17,13,31.70
2010,08,13,17,14,31.60
2010,08,13,17,15,31.60
2010,08,13,17,16,31.60
2010,08,13,17,17,31.60
2010,08,13,17,18,31.50
2010,08,13,17,19,31.50
2010,08,13,17,20,31.50
2010,08,13,17,21,31.50